DELTA 1 DEB, 19291

Orbit data source: Space-Track

DELTA 1 DEB, 19291 is space debris in SSO originally from a launch on Tue, 06 Nov 1973 UTC launched from the Air Force Western Test Range (AFWTR). Debris objects in space refer to the collection of defunct objects orbiting the Earth. Examples of debris include non-operational satellites, rocket bodies, and fragments generated from explosions, collisions, or faulty payload assembly.

Loading next visibility...
Identifier
19291, 1973-086HD
Orbit
SSO
Country
Flag of USUS
Related business
Manufacturer
Unknown
Mission
Spacecraft
Bus & Motor
Unknown
Mass
Unknown
Launch date (UTC)
1973-11-06 (52 years ago)
Launch vehicle
Unknown
Launch site
Air Force Western Test Range (AFWTR)
Object type
Payload
Rocket body
Debris
Shape & HBR
Unknown shape, 0.1 m
Radar Cross Section
Small (<0.1 m²)

Expand to show TLE details & history
Last TLE update: 2 days ago

TLE from 2 days ago
0 DELTA 1 DEB
1 19291U 73086HD  25290.89503262  .00000267  00000-0  20073-2 0  9998
2 19291 101.8064 266.2347 0033210 273.0645 114.8038 12.51491091703176
Epoch: 2025-10-17T21:28Z
TLE epoch observation values (Epoch: 2025-10-17T21:28:50.818Z)
Latitude
27.60443°
Longitude
-88.85481°
Altitude
1,472.344 km
Speed
7.124 km/s
True Right ascension
17h 19m 57s
True Declination
27° 28' 35"
Sunlit
Object was in daylight at epoch
Visualization orbit readout
Latitude
Unknown
Longitude
Unknown
Altitude
Unknown
Speed
Unknown
Apparent Right ascension
Unknown
Apparent Declination
Unknown
Sunlit
N/A
Visualization observer readout
Local Sidereal Time
21:38:57
Azimuth
Unknown
Elevation
Unknown
Doppler factor
Unknown
Orbital elements
Apogee altitude
1,481.829 km
Perigee altitude
1,429.796 km
Semi-major axis
7,833.949 km
Eccentricity
0.00332
Inclination
101.8064°
RAAN
266.2347°
Arg. of periapsis
273.0645°
True anomaly
115.14865°
Mean anomaly
114.8038°
Eccentric anomaly
114.97628°
Mean motion
3.1302 °/min
Orbital period
115.01 mins
BSTAR
0.0020073
Loading maneuver chart data...
Computing Atmospheric mass density...
Loading historical data...
Loading historical data...
Loading historical data...
Loading historical data...
Loading historical data...
Loading historical data...
Loading historical data...

Documentation

Showing up to 5 results
|